{"data":{"norad_id":61735,"intl_designator":"2024-199A","name":"IONOSFERA-M 1","alt_names":[],"object_type":"PAYLOAD","status":"ACTIVE","operator":null,"country":"CIS","launch_date":"2024-11-04","launch_site_code":"VOSTO","launch_vehicle":null,"mission":null,"orbit_class":"UNKNOWN","rcs_meters":null,"size_class":null,"mass_kg":null,"dimensions":null,"purposes":["earth_obs"],"wikipedia_slug":null,"has_3d_model":false,"image_url":null,"decayed_at":null,"tle_current":{"epoch":"2026-09-19T22:08:07.581408Z","epoch_age_seconds":68136,"freshness":"FRESH","line1":"1 61735U 24199A   26262.92230997  .00000013  00000+0  25347-4 0  9994","line2":"2 61735  98.7008 135.0268 0000681 147.2665 212.8555 14.22768887141172","mean_motion":14.22768887,"eccentricity":6.81e-5,"inclination_deg":98.7008,"raan_deg":135.0268,"arg_perigee_deg":147.2665,"mean_anomaly_deg":212.8555,"bstar":2.5347e-5,"rev_number":14117,"period_min":101.21109711897,"perigee_km":815.51390613497,"apogee_km":816.49374811563,"semimajor_km":7194.1408271253,"source":"CELESTRAK","updated_at":"2026-09-20T09:00:33.980655Z"}}}